Other Public Products
Issued by NWS Charleston, SC

Current Version | Previous Version | Graphics & Text | Print | Product List | Glossary On
Versions: 1 2 3 4 5 6 7 8 9 10 11 12 13 14 15 16 17 18 19 20 21 22 23 24 25 26 27 28 29 30 31 32 33 34 35 36 37 38 39 40 41 42 43 44 45 46 47 48 49 50
000
FPUS82 KCHS 191127
OPUCHS

TEST...KCHS/KSAV Gateway Observations...TEST
National Weather Service Charleston SC
600 AM EST SUN NOV 19 2017

NOTE: "fair" indicates few or no clouds below 12,000 feet with no
significant weather and/or obstructions to visibility.

SCZ050-WAZ558-NCZ071-TXZ119-213-PAZ071-DCZ001-FLZ074-172-MI076-
NYZ176-178-MAZ016-IL014-TNZ027-NJZ106-GAZ044-MD014-191200-

...Gateway Observations for Charleston International...

CITY           SKY/WX    TMP DP  RH WIND       PRES   REMARKS
Chas Airport   LGT RAIN  63  59  87 SW10      29.75R FOG
Seattle        MOCLDY    40  34  79 SE3       30.05F
Charlotte      MOCLDY    51  39  63 NW12      29.76R
Dallas DFW     CLEAR     42  35  76 NW9       30.29S
Dallas Love    CLEAR     43  36  76 NW3       30.31S
Philladelphia  LGT RAIN  58  55  90 SW21G33   29.29S
Wash National  PTCLDY    54  38  54 NW29G48   29.48R
Baltimore      PTCLDY    51  38  60 W30G46    29.43R
Miami          CLEAR     67  62  84 CALM      29.96R
Detroit        CLOUDY    37  26  64 NW18G29   29.74R WCI  27
Newark         LGT RAIN  59  56  89 S20G28    29.23F
Laguardia      LGT RAIN  59  56  89 SW21G30   29.23F
J F K          LGT RAIN  57  56  96 S20       29.26F
Boston Logan   CLOUDY    58  56  93 S16       29.21F
Ft. Lauderdale CLEAR     66  65  96 NW5       29.95R
Chicago O`Hare CLOUDY    32  21  64 NW14      29.93R WCI  22
Chicago Midway CLOUDY    34  23  64 NW14      29.95R WCI  25
Houston Bush   CLEAR     49  37  63 N12       30.26R
Houston Hobby  PTCLDY    51  35  54 N13       30.25R
Nashville      CLOUDY    43  32  65 NW9       30.05R
Atlanta        CLOUDY    46  38  73 NW15G23   29.95R

$$

GAZ044-118-TXZ119-213-NCZ071-DCZ001-MDZ014-506-PAZ021-071-NJZ106-
NYZ176-178-MAZ106-OHZ011-021-055-MIZ076-KYZ091-ILZ014-INZ047-
MNZ060-ONZ431-191200-

...Gateway Observations for Savannah International...

CITY           SKY/WX    TMP DP  RH WIND       PRES   REMARKS
Savannah Arpt  CLOUDY    62  59  90 W13       29.82R
Atlanta        CLOUDY    46  38  73 NW15G23   29.95R
Charlotte      MOCLDY    51  39  63 NW12      29.76R
Dallas DFW     CLEAR     42  35  76 NW9       30.29S
Houston Bush   CLEAR     49  37  63 N12       30.26R
Wash National  PTCLDY    54  38  54 NW29G48   29.48R
Wash Dulles    PTCLDY    49  35  58 W33G46    29.52R
Baltimore      PTCLDY    51  38  60 W30G46    29.43R
Philadelphia   LGT RAIN  58  55  90 SW21G33   29.29S
Newark         LGT RAIN  59  56  89 S20G28    29.23F
Laguardia      LGT RAIN  59  56  89 SW21G30   29.23F
J F K          LGT RAIN  57  56  96 S20       29.26F
Boston         CLOUDY    58  56  93 S16       29.21F
Pittsburg      CLOUDY    39  35  86 W20G28    29.65R WCI  29
Akron          CLOUDY    38  29  70 NW16G28   29.70R WCI  29
Cleveland      LGT RAIN  38  32  79 W17       29.74R WCI  28
Cincinnati     CLOUDY    38  31  76 W12       29.91R WCI  30
Columbus       CLOUDY    38  35  90 NW13G18   29.83R WCI  30
Detroit        CLOUDY    37  26  64 NW18G29   29.74R WCI  27
Chicago O`Hare CLOUDY    32  21  64 NW14      29.93R WCI  22
Minneapolis    CLEAR     18  11  74 W8        30.07F WCI   8
Indianapolis   CLOUDY    35  30  82 W20       29.95R WCI  24
Toronto Canada CLOUDY    36  30  80 NW21G28   29.47R WCI  24

$$




USA.gov is the U.S. government's official web portal to all federal, state and local government web resources and services.